"read_dt","SO2 (ppb)","flags","PMT voltage (V)","lamp voltage (V)","lamp intensity (Hz)","internal temp (C)","react chamber temp (C)","sample flow (l/min)","pres (mmHg)","SO2 bkg (ppb)","SO2 coefficient"
2014-06-06 00:00:00,2045E-3,5C000000,-0724,0845,12045,029.1,045.5,0.486,739.7,01.18,0.508
2014-06-06 00:01:00,2025E-3,5C000000,-0724,0845,12183,029.1,045.5,0.486,739.7,01.18,0.508
2014-06-06 00:02:00,1849E-3,5C000000,-0724,0845,12089,029.1,045.5,0.486,739.7,01.18,0.508
2014-06-06 00:03:00,2086E-3,5C000000,-0724,0845,12026,029.1,045.5,0.486,739.7,01.18,0.508
2014-06-06 00:04:00,1896E-3,5C000000,-0724,0845,12126,029.1,045.5,0.486,739.7,01.18,0.508
2014-06-06 00:05:00,1919E-3,5C000000,-0724,0845,11972,029.1,045.5,0.486,739.7,01.18,0.508
2014-06-06 00:06:00,1931E-3,5C000000,-0724,0845,11924,029.1,045.5,0.486,739.7,01.18,0.508
2014-06-06 00:07:00,1943E-3,5C000000,-0724,0845,12045,029.1,045.5,0.486,739.7,01.18,0.508
2014-06-06 00:08:00,1900E-3,5C000000,-0724,0846,12022,029.1,045.5,0.486,739.7,01.18,0.508
2014-06-06 00:09:00,1908E-3,5C000000,-0724,0845,11973,029.1,045.5,0.486,739.7,01.18,0.508
2014-06-06 00:10:00,1913E-3,5C000000,-0724,0845,12160,029.1,045.5,0.486,739.7,01.18,0.508
2014-06-06 00:11:00,1950E-3,5C000000,-0724,0845,11931,029.1,045.5,0.486,739.7,01.18,0.508
2014-06-06 00:12:00,1807E-3,5C000000,-0724,0845,12036,029.1,045.5,0.486,739.7,01.18,0.508
2014-06-06 00:13:00,1804E-3,5C000000,-0724,0845,12009,029.1,045.5,0.486,739.7,01.18,0.508
2014-06-06 00:14:00,1916E-3,5C000000,-0724,0845,11897,029.1,045.5,0.486,739.7,01.18,0.508
2014-06-06 00:15:00,1817E-3,5C000000,-0724,0845,11884,029.2,045.5,0.486,739.7,01.18,0.508
2014-06-06 00:16:00,1910E-3,5C000000,-0724,0846,11983,029.2,045.5,0.486,739.7,01.18,0.508
2014-06-06 00:17:00,1911E-3,5C000000,-0724,0846,12055,029.2,045.5,0.486,739.7,01.18,0.508
2014-06-06 00:18:00,1910E-3,5C000000,-0724,0846,11866,029.2,045.5,0.486,739.7,01.18,0.508
2014-06-06 00:19:00,1885E-3,5C000000,-0724,0846,12006,029.2,045.5,0.486,739.7,01.18,0.508
2014-06-06 00:20:00,1854E-3,5C000000,-0724,0846,11985,029.2,045.5,0.485,739.7,01.18,0.508
2014-06-06 00:21:00,1923E-3,5C000000,-0724,0846,12041,029.2,045.5,0.486,739.7,01.18,0.508
2014-06-06 00:22:00,1960E-3,5C000000,-0724,0846,11972,029.2,045.5,0.486,739.7,01.18,0.508
2014-06-06 00:23:00,1814E-3,5C000000,-0724,0847,11998,029.2,045.5,0.486,739.7,01.18,0.508
2014-06-06 00:24:00,1729E-3,5C000000,-0724,0847,11936,029.2,045.5,0.486,739.7,01.18,0.508
2014-06-06 00:25:00,1858E-3,5C000000,-0724,0844,11906,029.2,045.5,0.486,739.7,01.18,0.508
2014-06-06 00:26:00,2059E-3,5C000000,-0724,0845,12083,029.2,045.5,0.486,739.7,01.18,0.508
2014-06-06 00:27:00,1891E-3,5C000000,-0724,0845,11915,029.2,045.5,0.485,739.7,01.18,0.508
2014-06-06 00:28:00,1817E-3,5C000000,-0724,0845,12023,029.2,045.5,0.486,739.7,01.18,0.508
2014-06-06 00:29:00,1981E-3,5C000000,-0724,0846,12018,029.2,045.5,0.486,739.7,01.18,0.508
2014-06-06 00:30:00,1746E-3,5C000000,-0724,0846,12138,029.2,045.5,0.486,739.7,01.18,0.508
2014-06-06 00:31:00,1763E-3,5C000000,-0724,0846,11984,029.3,045.5,0.486,739.7,01.18,0.508
2014-06-06 00:32:00,1994E-3,5C000000,-0724,0845,12000,029.3,045.5,0.485,739.7,01.18,0.508
2014-06-06 00:33:00,1984E-3,5C000000,-0724,0845,11967,029.3,045.5,0.486,739.7,01.18,0.508
2014-06-06 00:34:00,2011E-3,5C000000,-0724,0845,12162,029.3,045.5,0.486,739.7,01.18,0.508
2014-06-06 00:35:00,1873E-3,5C000000,-0724,0845,11828,029.3,045.5,0.486,739.7,01.18,0.508
2014-06-06 00:36:00,1942E-3,5C000000,-0724,0845,11941,029.3,045.5,0.485,739.7,01.18,0.508
2014-06-06 00:37:00,1939E-3,5C000000,-0724,0845,12025,029.3,045.5,0.486,739.7,01.18,0.508
2014-06-06 00:38:00,1951E-3,5C000000,-0724,0845,12157,029.3,045.5,0.486,739.7,01.18,0.508
2014-06-06 00:39:00,1963E-3,5C000000,-0724,0845,11873,029.3,045.5,0.485,739.7,01.18,0.508
2014-06-06 00:40:00,1909E-3,5C000000,-0724,0845,12167,029.3,045.5,0.486,739.7,01.18,0.508
2014-06-06 00:41:00,1838E-3,5C000000,-0724,0845,11986,029.3,045.5,0.486,739.7,01.18,0.508
2014-06-06 00:42:00,1945E-3,5C000000,-0724,0845,12012,029.3,045.5,0.486,739.7,01.18,0.508
2014-06-06 00:43:00,1953E-3,5C000000,-0724,0845,12049,029.3,045.5,0.485,739.7,01.18,0.508
2014-06-06 00:44:00,1962E-3,5C000000,-0724,0845,12161,029.3,045.5,0.486,739.7,01.18,0.508
2014-06-06 00:45:00,1947E-3,5C000000,-0724,0845,12142,029.3,045.5,0.486,739.7,01.18,0.508
2014-06-06 00:46:00,1793E-3,5C000000,-0724,0846,12012,029.3,045.5,0.485,739.7,01.18,0.508
2014-06-06 00:47:00,1758E-3,5C000000,-0724,0844,12119,029.3,045.5,0.485,739.7,01.18,0.508
2014-06-06 00:48:00,1941E-3,5C000000,-0724,0845,11951,029.4,045.5,0.486,739.7,01.18,0.508
2014-06-06 00:49:00,1904E-3,5C000000,-0724,0846,12083,029.4,045.5,0.486,739.7,01.18,0.508
2014-06-06 00:50:00,1911E-3,5C000000,-0724,0845,11919,029.4,045.5,0.485,739.8,01.18,0.508
2014-06-06 00:51:00,1843E-3,5C000000,-0724,0845,12203,029.4,045.5,0.485,739.7,01.18,0.508
2014-06-06 00:52:00,1868E-3,5C000000,-0724,0846,12111,029.4,045.6,0.486,739.7,01.18,0.508
2014-06-06 00:53:00,1949E-3,5C000000,-0724,0844,12051,029.4,045.5,0.486,739.7,01.18,0.508
2014-06-06 00:54:00,1810E-3,5C000000,-0724,0845,11873,029.4,045.5,0.485,739.7,01.18,0.508
2014-06-06 00:55:00,1865E-3,5C000000,-0724,0845,11969,029.4,045.5,0.485,739.7,01.18,0.508
2014-06-06 00:56:00,1987E-3,5C000000,-0724,0845,12085,029.4,045.5,0.486,739.7,01.18,0.508
2014-06-06 00:57:00,1904E-3,5C000000,-0724,0845,11944,029.4,045.6,0.486,739.7,01.18,0.508
2014-06-06 00:58:00,1770E-3,5C000000,-0724,0846,11871,029.4,045.5,0.485,739.7,01.18,0.508
2014-06-06 00:59:00,1958E-3,5C000000,-0724,0845,12015,029.4,045.5,0.485,739.7,01.18,0.508
2014-06-06 01:00:00,1790E-3,5C000000,-0724,0845,11886,029.4,045.6,0.486,739.7,01.18,0.508
2014-06-06 01:01:00,1729E-3,5C000000,-0724,0845,12102,029.4,045.6,0.486,739.7,01.18,0.508
2014-06-06 01:02:00,1808E-3,5C000000,-0724,0846,11877,029.4,045.5,0.486,739.7,01.18,0.508
2014-06-06 01:03:00,1906E-3,5C000000,-0724,0846,12073,029.4,045.5,0.485,739.7,01.18,0.508
2014-06-06 01:04:00,1974E-3,5C000000,-0724,0847,11979,029.4,045.5,0.485,739.7,01.18,0.508
2014-06-06 01:05:00,1785E-3,5C000000,-0724,0846,11965,029.5,045.5,0.486,739.7,01.18,0.508
2014-06-06 01:06:00,1924E-3,5C000000,-0724,0845,12136,029.5,045.5,0.486,739.6,01.18,0.508
2014-06-06 01:07:00,1827E-3,5C000000,-0724,0845,12037,029.5,045.5,0.485,739.7,01.18,0.508
2014-06-06 01:08:00,1908E-3,5C000000,-0724,0845,12037,029.5,045.5,0.485,739.7,01.18,0.508
2014-06-06 01:09:00,1837E-3,5C000000,-0724,0845,12075,029.5,045.6,0.486,739.6,01.18,0.508
2014-06-06 01:10:00,1843E-3,5C000000,-0724,0845,12005,029.5,045.6,0.486,739.6,01.18,0.508
2014-06-06 01:11:00,1874E-3,5C000000,-0724,0844,11981,029.5,045.5,0.485,739.7,01.18,0.508
2014-06-06 01:12:00,1882E-3,5C000000,-0724,0846,12120,029.5,045.5,0.485,739.6,01.18,0.508
2014-06-06 01:13:00,1941E-3,5C000000,-0724,0846,12169,029.5,045.5,0.485,739.7,01.18,0.508
2014-06-06 01:14:00,1977E-3,5C000000,-0724,0846,12131,029.5,045.5,0.486,739.7,01.18,0.508
2014-06-06 01:15:00,1788E-3,5C000000,-0724,0845,11984,029.5,045.5,0.486,739.7,01.18,0.508
2014-06-06 01:16:00,1807E-3,5C000000,-0724,0846,12004,029.5,045.6,0.485,739.7,01.18,0.508
2014-06-06 01:17:00,1858E-3,5C000000,-0724,0845,12055,029.5,045.5,0.485,739.7,01.18,0.508
2014-06-06 01:18:00,1770E-3,5C000000,-0724,0846,12129,029.5,045.6,0.485,739.7,01.18,0.508
2014-06-06 01:19:00,1701E-3,5C000000,-0724,0844,12010,029.5,045.5,0.486,739.7,01.18,0.508
2014-06-06 01:20:00,1878E-3,5C000000,-0724,0846,11941,029.5,045.5,0.486,739.7,01.18,0.508
2014-06-06 01:21:00,1641E-3,5C000000,-0724,0845,12114,029.5,045.5,0.485,739.7,01.18,0.508
2014-06-06 01:22:00,1926E-3,5C000000,-0724,0845,12062,029.5,045.5,0.485,739.7,01.18,0.508
2014-06-06 01:23:00,1817E-3,5C000000,-0724,0845,12162,029.6,045.6,0.485,739.7,01.18,0.508
2014-06-06 01:24:00,1822E-3,5C000000,-0724,0845,11940,029.6,045.6,0.485,739.6,01.18,0.508
2014-06-06 01:25:00,1969E-3,5C000000,-0724,0846,12128,029.6,045.5,0.486,739.6,01.18,0.508
2014-06-06 01:26:00,1861E-3,5C000000,-0724,0844,12075,029.6,045.5,0.486,739.6,01.18,0.508
2014-06-06 01:27:00,1905E-3,5C000000,-0724,0846,12013,029.6,045.5,0.485,739.6,01.18,0.508
2014-06-06 01:28:00,1682E-3,5C000000,-0724,0845,11955,029.6,045.5,0.485,739.6,01.18,0.508
2014-06-06 01:29:00,1670E-3,5C000000,-0724,0845,11978,029.6,045.6,0.485,739.6,01.18,0.508
2014-06-06 01:30:00,1800E-3,5C000000,-0724,0845,11956,029.6,045.6,0.485,739.6,01.18,0.508
2014-06-06 01:31:00,2011E-3,5C000000,-0724,0846,11979,029.6,045.5,0.486,739.6,01.18,0.508
2014-06-06 01:32:00,1722E-3,5C000000,-0724,0845,12016,029.6,045.5,0.485,739.6,01.18,0.508
2014-06-06 01:33:00,1746E-3,5C000000,-0724,0846,11886,029.6,045.5,0.485,739.6,01.18,0.508
2014-06-06 01:34:00,1940E-3,5C000000,-0724,0846,12114,029.6,045.6,0.485,739.6,01.18,0.508
2014-06-06 01:35:00,1870E-3,5C000000,-0724,0846,12113,029.6,045.5,0.485,739.6,01.18,0.508
2014-06-06 01:36:00,1826E-3,5C000000,-0724,0845,12170,029.7,045.5,0.485,739.6,01.18,0.508
2014-06-06 01:37:00,1828E-3,5C000000,-0724,0845,12021,029.7,045.5,0.485,739.6,01.18,0.508
2014-06-06 01:38:00,1736E-3,5C000000,-0724,0846,11973,029.7,045.5,0.485,739.5,01.18,0.508
2014-06-06 01:39:00,1905E-3,5C000000,-0724,0846,12183,029.7,045.5,0.485,739.5,01.18,0.508
2014-06-06 01:40:00,1766E-3,5C000000,-0724,0846,11870,029.7,045.5,0.485,739.5,01.18,0.508
2014-06-06 01:41:00,1822E-3,5C000000,-0724,0844,12050,029.7,045.5,0.485,739.6,01.18,0.508
2014-06-06 01:42:00,1952E-3,5C000000,-0724,0844,12088,029.7,045.5,0.485,739.6,01.18,0.508
2014-06-06 01:43:00,1895E-3,5C000000,-0724,0845,12208,029.7,045.5,0.485,739.5,01.18,0.508
2014-06-06 01:44:00,1868E-3,5C000000,-0724,0845,11848,029.7,045.5,0.485,739.5,01.18,0.508
2014-06-06 01:45:00,1747E-3,5C000000,-0724,0846,12115,029.7,045.5,0.485,739.5,01.18,0.508
2014-06-06 01:46:00,1816E-3,5C000000,-0724,0846,12148,029.7,045.6,0.485,739.5,01.18,0.508
2014-06-06 01:47:00,1821E-3,5C000000,-0724,0844,11907,029.7,045.5,0.485,739.5,01.18,0.508
2014-06-06 01:48:00,1765E-3,5C000000,-0724,0845,12103,029.8,045.5,0.485,739.5,01.18,0.508
2014-06-06 01:49:00,1692E-3,5C000000,-0724,0846,12112,029.8,045.6,0.485,739.4,01.18,0.508
2014-06-06 01:50:00,1840E-3,5C000000,-0724,0845,12039,029.8,045.6,0.485,739.5,01.18,0.508
2014-06-06 01:51:00,1976E-3,5C000000,-0724,0845,12070,029.8,045.5,0.485,739.4,01.18,0.508
2014-06-06 01:52:00,1764E-3,5C000000,-0724,0845,12127,029.8,045.6,0.485,739.4,01.18,0.508
2014-06-06 01:53:00,1902E-3,5C000000,-0724,0846,12032,029.8,045.6,0.485,739.4,01.18,0.508
2014-06-06 01:54:00,1846E-3,5C000000,-0724,0845,12215,029.8,045.5,0.485,739.4,01.18,0.508
2014-06-06 01:55:00,1869E-3,5C000000,-0724,0846,12064,029.8,045.6,0.485,739.4,01.18,0.508
2014-06-06 01:56:00,1922E-3,5C000000,-0724,0846,12181,029.8,045.6,0.485,739.4,01.18,0.508
2014-06-06 01:57:00,1834E-3,5C000000,-0724,0845,12104,029.9,045.5,0.485,739.4,01.18,0.508
2014-06-06 01:58:00,1930E-3,5C000000,-0724,0845,11884,029.8,045.6,0.485,739.4,01.18,0.508
2014-06-06 01:59:00,1863E-3,5C000000,-0724,0845,12122,029.8,045.5,0.485,739.4,01.18,0.508
2014-06-06 02:00:00,1930E-3,5C000000,-0724,0846,12044,029.9,045.6,0.484,739.4,01.18,0.508
2014-06-06 02:01:00,1905E-3,5C000000,-0724,0845,11866,029.9,045.6,0.484,739.3,01.18,0.508
2014-06-06 02:02:00,1821E-3,5C000000,-0724,0845,12118,029.9,045.6,0.485,739.3,01.18,0.508
2014-06-06 02:03:00,1842E-3,5C000000,-0724,0845,11997,029.9,045.6,0.485,739.3,01.18,0.508
2014-06-06 02:04:00,1756E-3,5C000000,-0724,0846,11987,029.9,045.6,0.485,739.3,01.18,0.508
2014-06-06 02:05:00,1868E-3,5C000000,-0724,0845,12108,029.9,045.6,0.485,739.3,01.18,0.508
2014-06-06 02:06:00,1895E-3,5C000000,-0724,0846,12027,029.9,045.6,0.485,739.3,01.18,0.508
2014-06-06 02:07:00,1786E-3,5C000000,-0724,0846,12094,029.9,045.5,0.484,739.3,01.18,0.508
2014-06-06 02:08:00,1914E-3,5C000000,-0724,0846,11926,029.9,045.5,0.484,739.3,01.18,0.508
2014-06-06 02:09:00,1858E-3,5C000000,-0724,0846,12024,029.9,045.6,0.484,739.3,01.18,0.508
2014-06-06 02:10:00,1872E-3,5C000000,-0724,0846,12124,030.0,045.6,0.485,739.3,01.18,0.508
2014-06-06 02:11:00,1741E-3,5C000000,-0724,0844,12067,030.0,045.6,0.485,739.3,01.18,0.508
2014-06-06 02:12:00,1840E-3,5C000000,-0724,0846,12083,030.0,045.5,0.485,739.3,01.18,0.508
2014-06-06 02:13:00,1854E-3,5C000000,-0724,0845,12021,030.0,045.6,0.485,739.3,01.18,0.508
2014-06-06 02:14:00,1728E-3,5C000000,-0724,0846,11939,030.0,045.6,0.485,739.3,01.18,0.508
2014-06-06 02:15:00,2002E-3,5C000000,-0724,0845,12098,030.0,045.6,0.484,739.3,01.18,0.508
2014-06-06 02:16:00,1827E-3,5C000000,-0724,0846,12045,030.0,045.5,0.484,739.3,01.18,0.508
2014-06-06 02:17:00,1859E-3,5C000000,-0724,0846,12100,030.0,045.5,0.484,739.3,01.18,0.508
2014-06-06 02:18:00,1725E-3,5C000000,-0724,0844,11897,030.0,045.6,0.484,739.3,01.18,0.508
2014-06-06 02:19:00,1819E-3,5C000000,-0724,0846,11894,030.0,045.6,0.484,739.3,01.18,0.508
2014-06-06 02:20:00,1821E-3,5C000000,-0724,0846,12010,030.1,045.6,0.485,739.2,01.18,0.508
2014-06-06 02:21:00,1812E-3,5C000000,-0724,0846,12113,030.1,045.6,0.485,739.2,01.18,0.508
2014-06-06 02:22:00,1726E-3,5C000000,-0724,0846,12103,030.1,045.6,0.485,739.2,01.18,0.508
2014-06-06 02:23:00,1762E-3,5C000000,-0724,0845,11936,030.1,045.6,0.484,739.2,01.18,0.508
2014-06-06 02:24:00,1953E-3,5C000000,-0724,0845,12054,030.1,045.5,0.484,739.2,01.18,0.508
2014-06-06 02:25:00,1927E-3,5C000000,-0724,0846,12165,030.1,045.6,0.484,739.2,01.18,0.508
2014-06-06 02:26:00,1964E-3,5C000000,-0724,0845,12065,030.1,045.6,0.484,739.2,01.18,0.508
2014-06-06 02:27:00,1842E-3,5C000000,-0724,0847,12035,030.1,045.6,0.484,739.2,01.18,0.508
2014-06-06 02:28:00,1772E-3,5C000000,-0724,0846,12081,030.1,045.6,0.484,739.3,01.18,0.508
2014-06-06 02:29:00,1851E-3,5C000000,-0724,0846,12239,030.2,045.6,0.485,739.2,01.18,0.508
2014-06-06 02:30:00,1794E-3,5C000000,-0724,0847,12114,030.1,045.6,0.485,739.3,01.18,0.508
2014-06-06 02:31:00,1848E-3,5C000000,-0724,0846,12254,030.2,045.6,0.485,739.2,01.18,0.508
2014-06-06 02:32:00,1831E-3,5C000000,-0724,0846,12041,030.2,045.6,0.484,739.2,01.18,0.508
2014-06-06 02:33:00,1769E-3,5C000000,-0724,0845,12154,030.2,045.6,0.484,739.3,01.18,0.508
2014-06-06 02:34:00,1910E-3,5C000000,-0724,0846,12154,030.2,045.6,0.484,739.3,01.18,0.508
2014-06-06 02:35:00,1911E-3,5C000000,-0724,0845,11732,030.2,045.6,0.484,739.2,01.18,0.508
2014-06-06 02:36:00,1822E-3,5C000000,-0724,0846,12083,030.2,045.6,0.484,739.3,01.18,0.508
2014-06-06 02:37:00,1837E-3,5C000000,-0724,0846,12028,030.2,045.5,0.484,739.3,01.18,0.508
2014-06-06 02:38:00,1944E-3,5C000000,-0724,0846,12035,030.2,045.6,0.484,739.3,01.18,0.508
2014-06-06 02:39:00,1702E-3,5C000000,-0724,0846,12076,030.2,045.6,0.484,739.3,01.18,0.508
2014-06-06 02:40:00,1867E-3,5C000000,-0724,0846,12161,030.3,045.6,0.484,739.3,01.18,0.508
2014-06-06 02:41:00,1770E-3,5C000000,-0724,0845,12152,030.3,045.6,0.484,739.3,01.18,0.508
2014-06-06 02:42:00,1902E-3,5C000000,-0724,0846,12038,030.3,045.6,0.484,739.3,01.18,0.508
2014-06-06 02:43:00,1817E-3,5C000000,-0724,0846,12057,030.3,045.6,0.484,739.3,01.18,0.508
2014-06-06 02:44:00,1927E-3,5C000000,-0724,0846,12018,030.3,045.6,0.484,739.3,01.18,0.508
2014-06-06 02:45:00,1849E-3,5C000000,-0724,0845,11973,030.3,045.6,0.484,739.3,01.18,0.508
2014-06-06 02:46:00,1904E-3,5C000000,-0724,0847,12177,030.3,045.6,0.484,739.3,01.18,0.508
2014-06-06 02:47:00,1781E-3,5C000000,-0724,0846,12007,030.3,045.6,0.484,739.3,01.18,0.508
2014-06-06 02:48:00,1877E-3,5C000000,-0724,0846,11928,030.3,045.6,0.484,739.3,01.18,0.508
2014-06-06 02:49:00,1859E-3,5C000000,-0724,0848,12036,030.3,045.6,0.484,739.3,01.18,0.508
2014-06-06 02:50:00,1792E-3,5C000000,-0724,0846,12156,030.3,045.6,0.484,739.2,01.18,0.508
2014-06-06 02:51:00,1775E-3,5C000000,-0724,0846,11849,030.3,045.6,0.484,739.2,01.18,0.508
2014-06-06 02:52:00,1946E-3,5C000000,-0724,0846,12146,030.4,045.6,0.484,739.2,01.18,0.508
2014-06-06 02:53:00,1969E-3,5C000000,-0724,0846,11915,030.4,045.6,0.484,739.3,01.18,0.508
2014-06-06 02:54:00,1833E-3,5C000000,-0724,0846,11920,030.4,045.6,0.484,739.2,01.18,0.508
2014-06-06 02:55:00,1709E-3,5C000000,-0724,0846,12126,030.4,045.6,0.484,739.2,01.18,0.508
2014-06-06 02:56:00,1800E-3,5C000000,-0724,0846,11953,030.4,045.6,0.484,739.2,01.18,0.508
2014-06-06 02:57:00,1860E-3,5C000000,-0724,0845,11929,030.4,045.6,0.484,739.2,01.18,0.508
2014-06-06 02:58:00,1899E-3,5C000000,-0724,0845,12038,030.4,045.6,0.484,739.2,01.18,0.508
2014-06-06 02:59:00,1824E-3,5C000000,-0724,0846,12063,030.4,045.6,0.484,739.2,01.18,0.508
2014-06-06 03:00:00,1868E-3,5C000000,-0724,0845,12180,030.4,045.6,0.484,739.2,01.18,0.508
2014-06-06 03:01:00,1809E-3,5C000000,-0724,0846,12142,030.4,045.6,0.484,739.2,01.18,0.508
2014-06-06 03:02:00,1800E-3,5C000000,-0724,0847,12092,030.4,045.6,0.484,739.2,01.18,0.508
2014-06-06 03:03:00,1864E-3,5C000000,-0724,0846,12024,030.4,045.6,0.484,739.2,01.18,0.508
2014-06-06 03:04:00,1948E-3,5C000000,-0724,0846,12024,030.4,045.5,0.484,739.2,01.18,0.508
2014-06-06 03:05:00,1817E-3,5C000000,-0724,0847,12039,030.5,045.6,0.484,739.2,01.18,0.508
2014-06-06 03:06:00,1840E-3,5C000000,-0724,0846,11948,030.5,045.6,0.484,739.2,01.18,0.508
2014-06-06 03:07:00,1827E-3,5C000000,-0724,0847,12155,030.5,045.6,0.484,739.2,01.18,0.508
2014-06-06 03:08:00,1766E-3,5C000000,-0724,0845,11875,030.5,045.6,0.484,739.2,01.18,0.508
2014-06-06 03:09:00,1943E-3,5C000000,-0724,0846,11991,030.5,045.6,0.484,739.2,01.18,0.508
2014-06-06 03:10:00,1947E-3,5C000000,-0724,0847,12171,030.5,045.6,0.484,739.2,01.18,0.508
2014-06-06 03:11:00,1704E-3,5C000000,-0724,0847,12113,030.5,045.6,0.484,739.3,01.18,0.508
2014-06-06 03:12:00,1737E-3,5C000000,-0724,0846,12049,030.5,045.6,0.484,739.2,01.18,0.508
2014-06-06 03:13:00,1806E-3,5C000000,-0724,0846,12087,030.5,045.6,0.484,739.2,01.18,0.508
2014-06-06 03:14:00,1919E-3,5C000000,-0724,0846,12062,030.5,045.6,0.484,739.3,01.18,0.508
2014-06-06 03:15:00,1708E-3,5C000000,-0724,0846,12009,030.5,045.6,0.484,739.3,01.18,0.508
2014-06-06 03:16:00,1738E-3,5C000000,-0724,0847,11704,030.6,045.6,0.484,739.3,01.18,0.508
2014-06-06 03:17:00,1893E-3,5C000000,-0724,0846,12147,030.6,045.6,0.484,739.3,01.18,0.508
2014-06-06 03:18:00,1967E-3,5C000000,-0724,0846,12086,030.6,045.6,0.484,739.3,01.18,0.508
2014-06-06 03:19:00,1855E-3,5C000000,-0724,0847,11971,030.6,045.6,0.484,739.2,01.18,0.508
2014-06-06 03:20:00,1887E-3,5C000000,-0724,0846,12060,030.6,045.6,0.484,739.3,01.18,0.508
2014-06-06 03:21:00,1864E-3,5C000000,-0724,0845,12010,030.6,045.6,0.484,739.2,01.18,0.508
2014-06-06 03:22:00,1764E-3,5C000000,-0724,0846,12118,030.6,045.6,0.483,739.2,01.18,0.508
2014-06-06 03:23:00,1972E-3,5C000000,-0724,0847,12092,030.6,045.6,0.483,739.3,01.18,0.508
2014-06-06 03:24:00,1792E-3,5C000000,-0724,0845,11949,030.6,045.6,0.483,739.2,01.18,0.508
2014-06-06 03:25:00,1855E-3,5C000000,-0724,0846,12026,030.6,045.6,0.483,739.2,01.18,0.508
2014-06-06 03:26:00,1900E-3,5C000000,-0724,0845,12077,030.6,045.6,0.483,739.2,01.18,0.508
2014-06-06 03:27:00,1840E-3,5C000000,-0724,0846,12029,030.6,045.6,0.483,739.2,01.18,0.508
2014-06-06 03:28:00,1879E-3,5C000000,-0724,0846,11970,030.6,045.6,0.483,739.2,01.18,0.508
2014-06-06 03:29:00,1806E-3,5C000000,-0724,0845,12112,030.6,045.6,0.483,739.2,01.18,0.508
2014-06-06 03:30:00,1805E-3,5C000000,-0724,0846,11879,030.6,045.6,0.484,739.2,01.18,0.508
2014-06-06 03:31:00,1875E-3,5C000000,-0724,0845,12016,030.7,045.6,0.484,739.1,01.18,0.508
2014-06-06 03:32:00,2020E-3,5C000000,-0724,0846,12050,030.7,045.6,0.484,739.2,01.18,0.508
2014-06-06 03:33:00,1955E-3,5C000000,-0724,0846,12006,030.7,045.6,0.484,739.2,01.18,0.508
2014-06-06 03:34:00,1766E-3,5C000000,-0724,0846,12067,030.7,045.6,0.484,739.2,01.18,0.508
2014-06-06 03:35:00,1891E-3,5C000000,-0724,0846,12002,030.7,045.6,0.484,739.2,01.18,0.508
2014-06-06 03:36:00,1868E-3,5C000000,-0724,0846,11933,030.7,045.6,0.483,739.2,01.18,0.508
2014-06-06 03:37:00,1884E-3,5C000000,-0724,0846,12189,030.7,045.6,0.483,739.2,01.18,0.508
2014-06-06 03:38:00,1995E-3,5C000000,-0724,0845,11612,030.7,045.6,0.483,739.2,01.18,0.508
2014-06-06 03:39:00,1868E-3,5C000000,-0724,0845,11992,030.7,045.6,0.483,739.2,01.18,0.508
2014-06-06 03:40:00,1790E-3,5C000000,-0724,0846,12105,030.8,045.6,0.483,739.2,01.18,0.508
2014-06-06 03:41:00,1789E-3,5C000000,-0724,0846,11959,030.7,045.6,0.483,739.2,01.18,0.508
2014-06-06 03:42:00,1767E-3,5C000000,-0724,0847,12203,030.8,045.6,0.483,739.2,01.18,0.508
2014-06-06 03:43:00,1917E-3,5C000000,-0724,0847,12036,030.7,045.5,0.484,739.2,01.18,0.508
2014-06-06 03:44:00,1774E-3,5C000000,-0724,0846,11937,030.8,045.6,0.484,739.2,01.18,0.508
2014-06-06 03:45:00,1875E-3,5C000000,-0724,0846,11966,030.8,045.6,0.483,739.2,01.18,0.508
2014-06-06 03:46:00,1901E-3,5C000000,-0724,0846,12117,030.8,045.6,0.483,739.2,01.18,0.508
2014-06-06 03:47:00,1736E-3,5C000000,-0724,0847,11975,030.8,045.6,0.484,739.2,01.18,0.508
2014-06-06 03:48:00,1885E-3,5C000000,-0724,0846,11979,030.8,045.6,0.484,739.2,01.18,0.508
2014-06-06 03:49:00,1871E-3,5C000000,-0724,0846,12037,030.8,045.6,0.484,739.2,01.18,0.508
2014-06-06 03:50:00,1733E-3,5C000000,-0724,0846,11921,030.8,045.6,0.483,739.2,01.18,0.508
2014-06-06 03:51:00,1787E-3,5C000000,-0724,0845,12043,030.8,045.6,0.483,739.2,01.18,0.508
2014-06-06 03:52:00,1747E-3,5C000000,-0724,0847,12138,030.8,045.6,0.483,739.1,01.18,0.508
2014-06-06 03:53:00,1969E-3,5C000000,-0724,0846,12064,030.8,045.6,0.483,739.1,01.18,0.508
2014-06-06 03:54:00,1788E-3,5C000000,-0724,0846,12016,030.8,045.6,0.483,739.1,01.18,0.508
2014-06-06 03:55:00,1836E-3,5C000000,-0724,0845,12076,030.8,045.6,0.483,739.1,01.18,0.508
2014-06-06 03:56:00,1788E-3,5C000000,-0724,0846,12170,030.8,045.6,0.483,739.1,01.18,0.508
2014-06-06 03:57:00,1821E-3,5C000000,-0724,0845,12096,030.8,045.6,0.484,739.1,01.18,0.508
2014-06-06 03:58:00,1686E-3,5C000000,-0724,0846,12159,030.9,045.6,0.483,739.1,01.18,0.508
2014-06-06 03:59:00,1812E-3,5C000000,-0724,0845,12139,030.9,045.6,0.483,739.1,01.18,0.508
2014-06-06 04:00:00,1876E-3,5C000000,-0724,0845,11897,030.9,045.6,0.483,739.1,01.18,0.508
2014-06-06 04:01:00,1752E-3,5C000000,-0724,0846,12152,030.9,045.6,0.483,739.1,01.18,0.508
2014-06-06 04:02:00,1924E-3,5C000000,-0724,0845,12067,030.9,045.6,0.483,739.2,01.18,0.508
2014-06-06 04:03:00,1839E-3,5C000000,-0724,0847,11994,030.9,045.6,0.483,739.1,01.18,0.508
2014-06-06 04:04:00,1949E-3,5C000000,-0724,0845,12065,030.9,045.6,0.483,739.1,01.18,0.508
2014-06-06 04:05:00,1795E-3,5C000000,-0724,0846,12019,030.9,045.6,0.483,739.1,01.18,0.508
2014-06-06 04:06:00,1879E-3,5C000000,-0724,0846,11948,030.9,045.6,0.483,739.1,01.18,0.508
2014-06-06 04:07:00,1829E-3,5C000000,-0724,0846,11849,030.9,045.6,0.483,739.1,01.18,0.508
2014-06-06 04:08:00,1919E-3,5C000000,-0724,0846,12189,030.9,045.6,0.483,739.1,01.18,0.508
2014-06-06 04:09:00,1909E-3,5C000000,-0724,0846,11986,031.0,045.6,0.483,739.1,01.18,0.508
2014-06-06 04:10:00,1862E-3,5C000000,-0724,0847,12147,031.0,045.6,0.483,739.1,01.18,0.508
2014-06-06 04:11:00,1820E-3,5C000000,-0724,0845,12023,031.0,045.6,0.483,739.1,01.18,0.508
2014-06-06 04:12:00,1720E-3,5C000000,-0724,0846,11907,030.9,045.6,0.483,739.1,01.18,0.508
2014-06-06 04:13:00,1820E-3,5C000000,-0724,0845,12114,031.0,045.6,0.483,739.1,01.18,0.508
2014-06-06 04:14:00,1867E-3,5C000000,-0724,0846,11988,031.0,045.6,0.483,739.1,01.18,0.508
2014-06-06 04:15:00,1835E-3,5C000000,-0724,0845,12061,031.0,045.6,0.483,739.2,01.18,0.508
2014-06-06 04:16:00,2001E-3,5C000000,-0724,0846,12066,031.0,045.6,0.483,739.2,01.18,0.508
2014-06-06 04:17:00,1741E-3,5C000000,-0724,0844,12130,031.0,045.6,0.483,739.1,01.18,0.508
2014-06-06 04:18:00,1870E-3,5C000000,-0724,0845,12106,031.0,045.6,0.483,739.2,01.18,0.508
2014-06-06 04:19:00,1794E-3,5C000000,-0724,0846,12060,031.0,045.6,0.483,739.2,01.18,0.508
2014-06-06 04:20:00,1847E-3,5C000000,-0724,0845,12233,031.0,045.6,0.483,739.2,01.18,0.508